Offutt AFB, NE

9:02 AM CST on February 19, 2017 (GMT -0600)
Offutt Air Force Base

Weather History for KOFF - April, 2014

Change the Weather History Date:

Friday, April 11, 2014

  Actual Average Record
Temperature  
Mean Temperature 54 °F -  
Max Temperature 77 °F 59 °F 84 °F (2006)
Min Temperature 31 °F 39 °F 25 °F (2009)
Degree Days  
Heating Degree Days 11    
Growing Degree Days 4 (Base 50)    
Moisture  
Dew Point 29 °F    
Average Humidity 43    
Maximum Humidity 86    
Minimum Humidity 17    
Precipitation  
Precipitation 0.00 in - - ()
Sea Level Pressure  
Sea Level Pressure 29.97 in    
Wind  
Wind Speed 3 mph (South)    
Max Wind Speed 10 mph    
Max Gust Speed 17 mph    
Visibility 10 miles    
Events      
Averages and records for this station are not official NWS values.
T = Trace of Precipitation, MM = Missing Value Source: NWS Daily Summary

Daily Weather History Graph

Daily Weather History Graph

Search for Another Location

Airport or City:

Trip Planner

Search our weather history database for the weather conditions in past years. The results will help you decide how hot, cold, wet, or windy it might be!

Date:

Astronomy

Apr. 11, 2014 Rise Set
Actual Time 6:50 AM CDT 7:59 PM CDT
Civil Twilight 6:22 AM CDT 8:27 PM CDT
Nautical Twilight 5:48 AM CDT 9:01 PM CDT
Astronomical Twilight 5:13 AM CDT 9:37 PM CDT
Moon 4:39 PM CDT (4/11) 4:48 AM CDT (4/11)
Length of Visible Light 14h 05m
Length of Day
13h 08m
Waxing Gibbous, 87% of the Moon is Illuminated
Apr 11
Waxing Gibbous
Apr 15
Full
Apr 22
Last Quarter
Apr 29
New
May 6
First Quarter

Hourly Weather History & Observations

Time (CDT) Temp. Windchill Dew Point Humidity Pressure Visibility Wind Dir Wind Speed Gust Speed Precip Events Conditions
12:58 AM 34.0 °F - 28.4 °F 80% 30.02 in 10.0 mi Calm Calm - N/A   Clear
1:58 AM 36.3 °F - 30.9 °F 81% 30.03 in 10.0 mi Calm Calm - N/A   Clear
2:58 AM 41.0 °F - 32.2 °F 71% 30.03 in 10.0 mi Calm Calm - N/A   Clear
3:58 AM 35.6 °F - 31.3 °F 84% 30.03 in 10.0 mi Calm Calm - N/A   Clear
4:58 AM 32.5 °F - 28.8 °F 86% 30.02 in 10.0 mi Calm Calm - N/A   Clear
5:58 AM 33.4 °F - 26.4 °F 75% 30.03 in 10.0 mi Calm Calm - N/A   Clear
6:58 AM 31.5 °F - 27.3 °F 85% 30.03 in 10.0 mi Calm Calm - N/A   Clear
7:58 AM 42.4 °F 40.7 °F 27.7 °F 56% 30.05 in 10.0 mi East 3.5 mph - N/A   Partly Cloudy
8:58 AM 50.0 °F - 29.1 °F 45% 30.06 in 10.0 mi ESE 1.2 mph - N/A   Clear
9:58 AM 61.3 °F - 26.8 °F 27% 30.06 in 10.0 mi Variable 2.3 mph - N/A   Clear
10:58 AM 68.0 °F - 22.8 °F 18% 30.06 in 10.0 mi SW 10.4 mph - N/A   Clear
11:58 AM 70.7 °F - 23.9 °F 17% 30.06 in 10.0 mi SW 9.2 mph - N/A   Clear
12:58 PM 72.9 °F - 26.4 °F 18% 30.02 in 10.0 mi SW 8.1 mph - N/A   Clear
1:58 PM 74.7 °F - 28.0 °F 18% 29.99 in 10.0 mi Variable 5.8 mph - N/A   Clear
2:58 PM 75.7 °F - 27.9 °F 17% 29.96 in 10.0 mi West 8.1 mph - N/A   Clear
3:58 PM 76.6 °F - 29.1 °F 17% 29.93 in 10.0 mi South 8.1 mph - N/A   Clear
4:58 PM 77.0 °F - 32.0 °F 19% 29.91 in 10.0 mi SW 3.5 mph - N/A   Clear
5:58 PM 76.6 °F - 31.1 °F 19% 29.88 in 10.0 mi South 9.2 mph 17.3 mph N/A   Clear
6:58 PM 74.8 °F - 31.6 °F 21% 29.88 in 10.0 mi South 9.2 mph - N/A   Clear
7:58 PM 68.5 °F - 32.0 °F 26% 29.86 in 10.0 mi SSE 8.1 mph - N/A   Partly Cloudy
8:58 PM 63.5 °F - 33.1 °F 32% 29.87 in 10.0 mi SE 5.8 mph - N/A   Partly Cloudy
9:58 PM 64.0 °F - 34.2 °F 33% 29.87 in 10.0 mi SE 9.2 mph - N/A   Mostly Cloudy
10:58 PM 54.5 °F - 33.1 °F 44% 29.86 in 10.0 mi ESE 9.2 mph - N/A   Clear
11:58 PM 52.0 °F - 33.1 °F 49% 29.83 in 10.0 mi ESE 8.1 mph - N/A   Clear